Location: Binningen
(47.7924°N, 8.7261°E)
Time: 04:34:37
(UTC+00:00)

Okean 2 - Pass Details

Date: 17 May 2021
Orbit: 558 x 577 km, 82.5° (Epoch: 14 June)

Event Time Altitude Azimuth Distance (km) Brightness Sun altitude
Exits shadow 23:22:13 34° 96° (E) 963 4.4 -22.7°
Maximum altitude 23:22:22 34° 91° (E) 961 4.5 -22.7°
Drops below altitude 10° 23:26:09 10° 27° (NNE) 1,891 6.9 -22.6°
Sets 23:28:28 0° 18° (NNE) 2,792 8.2 -22.6°
